sat.trackr.live / text

‹ back to catalog

STARLINK-32825

NORAD 62825 · 2025-018V

PAYLOAD ACTIVE UNKNOWN

§ Identity

Operator
Country
US
Launch date
2025-01-24
Launch site
AFWTR
Launch vehicle
Mass (kg)
RCS (m²)

Purposes: comms

External: N2YO · Heavens-Above · Gunter

§ Orbital elements

Epoch: 2026-05-25T03:58:19.492032Z

Period
94.10 min
Inclination
53.1602°
Eccentricity
0.0001317
Mean motion
15.30206684 rev/d
Perigee alt
474.3 km
Apogee alt
476.1 km
Semi-major
6,853.3 km
B*
5.8945e-4
RAAN
311.7792°
Arg perigee
86.3873°
Mean anomaly
273.7278°
Rev number
7,491

§ Raw data

STARLINK-328251 62825U 25018V   26145.16550338  .00017142  00000+0  58945-3 0  99962 62825  53.1602 311.7792 0001317  86.3873 273.7278 15.30206684 74911

JSON: /api/v1/satellites/62825 · /tle

For live sub-satellite position, see the globe view (requires WebGL).

§ Visibility from observer

Set your observer location to see the next 7 days of passes ≥ 10°. The values pass through the URL so the page stays shareable.

No JS? Fill the form by hand. The geolocation button needs JavaScript.